レモン彗星

C/2018 U1 ( Lemmon )

English version
Home page
Updated on September 4, 2021

---------------------------------------------------------------------

・ プロフィール

発見日 2018年10月27日
発見光度 20.0等
発見者 R. A. Kowalski (Mount Lemmon Survey)

・ 写真集

・ 軌道要素

Epoch 2021 Nov. 2.0 TT = JDT 2459520.5
T 2021 Nov. 3.07865 TT                                  Rudenko
q   4.9929780            (2000.0)            P               Q
z  -0.0002756      Peri.  180.46380     -0.25316343     -0.30190567
 +/-0.0000010      Node    75.48039     -0.88450863     +0.45705822
e   1.0013759      Incl.  108.29881     -0.39185809     -0.83663059
From 1691 observations 2018 Oct. 27-2021 May 2, mean residual 0".9.

・ 星図

・ 光度変化

        m1 = 4.5 + 5 logΔ + 10.0 log r

---------------------------------------------------------------------

軌道要素はM.P.E.C. 2021-J28に掲載されたものです。
星図はステラナビゲータ Ver.10 (アストロアーツ) で作成したものです。
光度グラフはComet for Windowsで作成したものです。

---------------------------------------------------------------------

Copyright(C) Seiichi Yoshida (comet@aerith.net). All rights reserved.